041  
NZUS93 KARX 252010  
HRRWXR  
 
CURRENT HOURLY OBSERVATIONS ACROSS  
MUCH OF THE UPPER MISSISSIPPI VALLEY  
NATIONAL WEATHER SERVICE LA CROSSE WI  
200 PM CST TUE NOV 25 2014  
 
   
..SOUTHEAST MINNESOTA
 
 
 
CITY SKY/WX TMP DP RH WIND PRES REMARKS  
ROCHESTER PTSUNNY 22 13 68 SW7 30.04F WCI 13  
ROCHESTER/MAYO MOCLDY 26 12 55 W3 30.04F  
WINONA SUNNY 25 14 63 CALM 30.09S  
AUSTIN SUNNY 25 14 63 SW6 30.04F WCI 18  
ALBERT LEA SUNNY 27 12 54 SW7 30.03F WCI 19  
DODGE CENTER CLOUDY 23 16 74 SW5 30.02F WCI 17  
PRESTON PTSUNNY 20 13 75 W5 30.05F WCI 14  
OWATONNA CLOUDY 25 14 63 S6 30.03S WCI 18  
FARIBAULT CLOUDY 25 12 58 S6 30.04S WCI 18  

 
   
..ELSEWHERE IN MINNESOTA
 
 
 
CITY SKY/WX TMP DP RH WIND PRES REMARKS  
MINNEAPOLIS CLOUDY 20 11 68 VRB3 30.05S  
INTNL FALLS PTSUNNY 17 5 59 W5 29.93F WCI 10  
DULUTH MOSUNNY 20 8 60 SW12 29.94S WCI 8  
RED WING CLOUDY 25 12 58 CALM 30.05F  
REDWOOD FALLS CLOUDY 31 12 45 S10 29.98F WCI 22  
MANKATO MOSUNNY 27 7 43 S7 30.02F WCI 19  
WORTHINGTON MOSUNNY 32 16 51 S12 29.95F WCI 23  
FAIRMONT CLOUDY 30 7 37 S9 30.00F WCI 22  

 
   
..SOUTHWEST WISCONSIN
 
 
 
CITY SKY/WX TMP DP RH WIND PRES REMARKS  
LA CROSSE SUNNY 27 13 55 CALM 30.09R  
PRAIRIE DU CHI SUNNY 24 13 63 SW6 30.11R WCI 17  
BOSCOBEL SUNNY 25 15 66 SW8 30.10R WCI 16  
LONE ROCK MOSUNNY 27 15 61 W7 30.09R WCI 19  
PLATTEVILLE SUNNY 24 17 74 W12 30.08S WCI 13  
FORT MC COY SUNNY 24 15 69 W7 30.08S WCI 15  
CAMP DOUGLAS MOSUNNY 21 18 86 NW7 30.06R WCI 13  
VIROQUA FAIR 22 14 72 SW7 30.05R WCI 13  
WIS DELLS PTSUNNY 21 15 76 W6 30.06R WCI 14  

 
   
..ELSEWHERE IN WISCONSIN
 
 
 
CITY SKY/WX TMP DP RH WIND PRES REMARKS  
MILWAUKEE CLOUDY 25 17 72 W9 30.07R WCI 15  
MADISON CLOUDY 22 16 78 W7 30.07R WCI 13  
GREEN BAY CLOUDY 24 16 71 W13 30.03R WCI 12  
EAU CLAIRE PTSUNNY 20 11 68 SW6 30.05S WCI 12  
BLACK RVR FLS FAIR 25 13 61 W6 30.06S WCI 18  
MEDFORD SUNNY 19 11 70 SW5 29.99S WCI 13  
WAUSAU PTSUNNY 18 12 77 W10 30.01R WCI 6  
WIS RAPIDS PTSUNNY 20 13 74 SW8 30.06R WCI 10  
MARSHFIELD SUNNY 20 11 68 W7 30.02R WCI 11  
RICE LAKE CLOUDY 19 11 70 S5 30.03F WCI 13  

 
   
..NORTHEAST IOWA
 
 
 
CITY SKY/WX TMP DP RH WIND PRES REMARKS  
DECORAH SUNNY 21 12 68 VRB5 30.07R WCI 15  
MASON CITY SUNNY 26 10 50 SW3 30.06F  
CHARLES CITY SUNNY 23 12 63 SW6 30.08F WCI 16  
OELWEIN SUNNY 21 14 73 W9 30.10S WCI 11  

 
   
..ELSEWHERE IN IOWA
 
 
 
CITY SKY/WX TMP DP RH WIND PRES REMARKS  
DES MOINES MOSUNNY 36 7 29 W8 30.09F WCI 30  
IOWA CITY SUNNY 28 20 71 SW7 30.14S WCI 21  
FORT DODGE SUNNY 34 9 35 SW6 30.05F WCI 29  

 
   
..NORTHERN ILLINOIS
 
 
 
CITY SKY/WX TMP DP RH WIND PRES REMARKS  
CHICAGO-OHARE MOSUNNY 25 17 72 W12 30.11R WCI 14  
CHICAGO-MIDWAY PTSUNNY 28 18 66 SW15 30.13R WCI 16  
MOLINE SUNNY 26 16 65 W6 30.14R WCI 19  
ROCKFORD MOSUNNY 22 14 71 W8 30.14R WCI 12  
PEORIA CLOUDY 29 20 69 SW8 30.16S WCI 21  

 
 
NOTE: "FAIR" INDICATES FEW OR NO CLOUDS BELOW 12,000 FEET WITH NO  
SIGNIFICANT WEATHER AND/OR OBSTRUCTIONS TO VISIBILITY. WIND  
SPEEDS ARE IN MILES-PER-HOUR.  
 
CLICK HERE TO GO TO PREVIOUS BULLETINS.

The Nexlab WI Page
The Nexlab IA Page
The Nexlab MN Page Main Text Page